Find Kosmos-1736

NORAD ID: 16647 Int'l Des: 1986-024 Owner: VMF Country: SU operational
LEOCIRCULAR

現在のビュー

3D地球を読み込み中...

About Kosmos-1736

Kosmos-1736 (NORAD 16647) is a satellite launched Mar 21, 1986 by VMF of SU. It operates in LEO, CIRCULAR orbit with a mass of 1154.00 kg.

次回通過

Passes for default location (London). Set your location on the main map for personalized predictions.

高度履歴

Loading altitude history...

軌道要素

1 16647U 86024A 26194.48267507 -.00000053 00000-0 33427-4 0 9997
2 16647 64.9859 223.0612 0051610 218.0388 246.6154 13.79566534 32031
Epoch: Jul 13, 2026 • Age: 15 hours

現在のステータス

高度 969.9 km
遠地点 / 近地点 N/A
速度 7.38 km/s
衛星直下点 -63.91°S, 176.99°W
打ち上げ日 Mar 21, 1986
運用期間 40.3 years
タイプ other

技術仕様

分類 Payload
質量 1154.00 kg
乾燥質量 1154.00 kg
総質量 4300.00 kg
長さ 5.80 m
直径 1.30 m
スパン 5.80 m
形状 Cyl
製造者 KOMET
バスタイプ US-A reactor
フェーズステータス In Orbit
所有者/国 VMF/SU

Most Searched